GFSMW_700_spd_306.txt.gz
Wind_Speed
30 35 35 36 35 34 30 31 33 31 31 29 27 24 22 20 19 18 17 16 13 12 12 9 11 10 10 9 11 13 15 15 15 14 12 13 15 12 11 9 9 8 10
31 37 39 37 38 37 30 29 35 33 32 29 27 24 22 22 19 20 17 17 14 14 13 11 11 11 12 11 13 14 16 15 15 15 12 13 14 12 10 9 9 9 10
36 34 39 40 38 40 38 33 35 35 33 30 28 26 23 25 24 23 16 18 15 14 13 12 12 12 12 13 14 16 17 15 15 14 15 15 12 10 10 9 10 11 11
38 36 35 40 39 38 38 32 32 32 31 30 29 28 26 24 20 19 17 18 17 16 14 14 14 14 15 14 15 16 18 16 14 16 16 18 14 12 11 11 12 12 12
38 44 42 35 36 35 32 28 32 30 33 34 34 31 28 24 21 21 20 21 19 17 17 17 16 16 18 16 17 16 17 17 16 14 16 17 16 16 14 13 13 13 13
42 46 50 43 37 32 33 30 32 30 30 34 34 33 29 23 23 22 22 21 21 21 21 19 18 19 19 19 19 18 18 18 18 17 15 16 16 17 18 16 12 14 14
34 44 47 43 42 39 37 37 38 34 27 31 33 32 28 25 23 21 17 19 24 25 23 20 20 20 20 20 20 18 18 19 18 19 17 16 18 19 17 20 14 16 15
38 30 45 41 45 43 41 42 43 43 46 47 39 33 27 25 25 28 19 14 23 25 23 22 22 22 22 19 21 19 18 19 20 19 19 17 18 17 19 21 17 18 17
39 37 46 41 29 35 42 40 45 48 50 45 38 35 30 26 28 29 26 34 31 23 24 23 22 23 21 22 22 22 22 18 21 19 20 18 18 19 20 21 18 20 20
37 37 33 40 39 32 31 31 35 48 44 45 41 37 31 31 34 29 26 28 24 26 21 25 29 28 32 32 28 25 24 22 23 20 18 20 20 21 20 20 20 21 23
40 42 43 35 49 30 35 31 38 41 45 43 51 51 53 49 38 31 31 36 40 35 32 35 36 26 25 36 34 32 33 28 23 19 20 22 21 21 21 21 20 21 24
42 43 38 35 31 30 28 39 38 37 40 36 37 38 40 38 29 37 38 36 32 32 33 37 34 34 29 28 33 42 42 37 34 19 21 22 22 22 22 23 22 22 25
33 37 35 37 37 35 35 36 37 37 29 28 23 23 35 37 40 40 37 37 36 35 35 37 23 16 27 31 35 41 32 23 21 21 21 21 22 23 24 24 22 24 24
29 30 29 30 34 36 40 40 36 36 37 42 34 32 36 40 38 38 36 38 36 35 35 25 19 24 24 25 26 30 44 28 17 14 19 22 24 24 24 24 24 24 24
26 26 27 29 31 31 31 30 29 30 31 33 39 39 36 33 34 35 35 37 32 32 32 27 27 19 16 19 16 10 27 9 19 21 25 21 24 23 25 24 25 24 24
24 23 22 24 24 24 23 22 23 24 24 27 30 31 33 38 38 37 37 36 32 33 27 34 26 23 16 22 16 10 19 22 23 24 23 22 23 24 27 25 25 26 24
20 22 22 23 23 23 22 20 20 20 20 19 19 21 24 27 29 32 33 34 33 33 33 31 27 22 23 25 20 18 22 22 21 24 23 23 24 26 26 25 26 25 25
18 19 19 18 17 18 17 19 21 22 22 19 18 17 17 18 19 20 21 27 32 31 33 32 27 25 22 25 24 24 26 24 24 26 23 25 24 26 27 26 26 26 26
17 17 17 16 15 15 15 15 16 16 15 16 14 14 13 13 13 14 16 19 28 34 32 36 29 27 25 26 28 29 29 25 26 27 25 27 25 26 27 28 27 26 26
10 11 12 14 15 14 14 14 15 14 13 13 15 14 15 15 16 16 17 16 19 27 34 35 33 31 25 27 29 33 32 28 27 27 28 29 26 27 29 29 27 28 28
10 8 11 15 16 15 14 17 16 16 15 15 15 15 14 15 17 18 19 19 20 23 30 37 33 32 31 32 38 33 32 29 28 30 32 30 27 29 31 30 29 30 28
6 11 11 15 19 16 17 19 20 19 18 18 17 17 19 18 18 20 21 22 22 22 25 30 37 35 33 34 34 37 32 32 32 32 31 29 30 30 32 33 33 30 30
5 5 5 9 18 16 18 19 22 22 21 22 22 20 22 25 22 20 22 23 25 26 25 30 35 37 40 35 38 33 35 35 35 33 35 33 31 34 38 35 35 35 32
9 10 12 14 10 13 18 19 20 25 26 25 25 25 26 28 31 27 26 25 27 27 27 29 32 37 37 38 37 32 35 39 35 37 36 33 33 37 38 36 35 36 33
14 14 15 17 19 19 16 17 18 19 23 27 28 27 31 29 32 34 33 32 30 30 30 30 34 37 41 39 37 38 34 38 29 38 39 35 33 35 37 34 35 38 36
18 18 17 18 18 18 18 20 19 23 24 29 28 28 33 33 30 31 33 34 35 35 35 36 37 40 40 40 39 41 39 33 33 45 45 40 37 38 39 40 37 36 36

GFSMW_700_spd_309.txt.gz
Wind_Speed
27 35 40 34 33 27 25 29 30 30 29 29 28 26 25 23 21 21 20 19 16 18 15 11 14 13 12 12 11 8 9 12 12 12 14 13 11 12 9 9 10 6 8
31 35 41 40 38 32 28 29 29 30 30 30 29 26 25 24 22 21 23 22 19 19 14 14 15 14 10 9 9 10 12 13 13 13 14 13 13 13 10 9 9 9 9
38 33 38 43 44 37 35 28 28 30 32 32 32 29 27 27 27 25 22 22 20 20 15 15 14 11 8 9 10 11 12 12 15 12 14 14 12 13 9 9 9 8 10
42 36 35 44 50 43 43 37 31 32 36 35 35 33 33 32 29 23 21 22 21 19 16 15 14 11 10 10 12 13 13 13 14 13 15 14 13 12 12 11 12 11 11
44 40 36 38 47 46 45 43 37 35 37 37 36 35 35 33 27 25 24 23 22 20 18 16 15 14 13 13 14 14 15 13 14 14 16 15 15 15 11 13 13 13 13
47 46 39 33 42 46 46 46 42 37 38 39 38 38 38 36 32 29 25 24 22 20 18 18 17 16 15 15 15 17 17 16 15 15 16 16 17 17 14 14 13 14 14
47 49 41 37 38 50 47 44 41 41 43 46 43 41 40 36 33 31 27 25 23 21 21 21 19 18 17 15 15 17 18 18 17 16 16 16 17 18 17 16 14 15 15
47 48 44 38 36 41 43 47 44 41 43 46 44 41 39 35 33 32 29 25 22 21 22 21 21 22 20 19 18 18 19 19 18 19 17 17 16 18 20 18 17 17 17
50 49 41 36 44 46 49 49 47 40 43 45 44 42 42 38 35 34 28 26 22 17 16 18 21 24 20 19 16 19 21 23 22 20 17 17 18 18 23 20 19 18 18
50 45 33 34 35 46 50 37 44 43 42 42 44 42 42 40 39 39 35 37 19 16 18 19 19 19 17 21 24 25 31 27 26 31 22 21 25 21 23 19 23 21 21
39 44 40 39 44 35 54 40 53 47 47 49 49 43 42 41 41 40 34 24 22 21 22 29 26 22 18 26 25 23 26 31 37 35 33 31 23 23 19 18 24 25 24
38 36 39 37 31 28 24 36 35 45 44 53 52 45 44 42 40 40 36 28 28 28 25 35 28 31 31 26 25 24 24 31 36 36 38 29 21 20 17 22 23 24 24
39 32 33 33 31 25 21 23 35 28 43 48 53 48 49 47 44 39 34 33 35 37 34 34 32 29 27 28 21 21 24 22 23 34 26 25 20 17 17 20 22 23 24
34 36 29 28 24 24 25 24 26 33 38 47 46 22 40 17 31 30 37 31 38 38 35 29 26 29 28 20 15 15 19 25 21 26 23 19 17 14 17 24 24 25 24
25 29 22 22 28 30 31 31 33 36 37 35 35 25 17 23 27 12 24 45 41 32 23 20 27 27 27 18 17 16 13 11 15 26 33 27 24 27 24 24 24 27 25
17 22 21 19 24 29 33 39 39 39 38 31 29 30 30 28 26 26 28 30 26 33 29 30 32 27 20 17 19 18 19 15 8 11 21 23 24 26 23 22 23 23 25
16 16 17 18 19 22 27 29 28 30 30 30 30 29 33 34 35 37 36 35 35 32 32 31 30 27 21 21 20 21 21 14 11 15 18 22 20 19 22 22 22 23 24
17 17 16 17 18 19 21 24 24 23 22 23 24 23 24 27 32 35 35 33 32 32 33 31 30 28 23 23 21 22 23 20 16 17 22 22 22 22 22 21 23 23 24
14 14 17 16 18 21 21 24 26 24 22 20 20 20 20 20 20 22 23 26 30 32 33 32 33 30 27 25 22 22 24 23 20 20 22 22 22 22 23 23 24 23 25
9 7 11 13 13 16 19 19 20 22 23 22 19 18 18 17 16 17 17 18 22 27 33 35 31 25 27 24 26 25 26 28 24 22 20 20 21 22 25 25 24 24 25
4 4 6 8 8 10 13 15 16 16 18 20 22 21 19 20 19 18 17 17 17 20 26 32 35 32 31 28 27 25 27 26 26 26 22 20 22 25 28 27 25 24 28
8 3 3 9 7 9 12 14 13 14 16 16 20 20 19 19 20 20 19 18 17 18 20 23 29 32 34 31 32 29 31 30 28 30 26 25 25 28 28 27 25 26 28
14 10 5 7 11 8 9 12 13 13 14 14 15 18 19 18 16 18 19 19 20 20 21 22 21 24 26 27 32 31 30 34 29 32 29 29 29 28 28 28 29 28 28
5 12 15 14 13 11 11 12 13 15 15 15 17 18 19 20 20 18 18 19 19 20 23 24 24 27 24 24 26 28 31 34 36 31 33 30 31 35 28 28 31 30 29
15 10 13 17 18 20 19 17 16 16 17 19 18 18 20 20 22 23 23 22 22 23 25 26 27 29 29 26 28 27 32 35 37 39 38 35 32 31 26 28 31 32 31
22 21 18 17 18 21 24 24 22 19 21 22 23 20 22 22 22 23 25 25 25 27 28 29 30 32 32 32 32 33 35 37 41 44 46 41 41 34 30 28 32 34 36

GFSMW_700_spd_312.txt.gz
Wind_Speed
26 22 27 29 29 27 28 29 29 30 30 32 33 34 35 33 30 29 27 25 25 24 18 15 18 17 13 14 13 13 13 6 7 10 10 10 9 8 8 8 9 8 8
33 31 25 30 35 29 30 31 31 31 30 32 33 31 31 30 29 29 27 26 23 20 20 17 17 19 16 15 13 12 9 7 9 11 11 9 8 10 10 8 8 9 9
40 38 33 31 35 36 32 32 30 32 31 30 31 31 30 30 32 33 31 26 24 21 19 18 18 17 16 15 13 10 8 9 11 12 12 10 9 10 9 8 10 10 9
44 43 39 34 34 39 36 35 32 35 36 34 34 32 33 34 33 30 26 25 25 24 21 21 19 17 17 16 14 12 10 10 11 12 13 13 12 11 11 11 12 12 12
40 49 48 44 31 33 37 37 33 33 38 38 38 35 34 34 32 30 28 28 27 26 24 23 21 19 17 16 14 12 11 11 12 13 14 13 14 13 12 13 14 14 14
43 41 48 47 37 30 35 40 40 36 38 39 40 38 36 36 34 31 31 30 31 27 25 25 22 19 16 14 13 13 13 14 13 14 15 14 15 15 14 14 16 17 15
42 38 45 53 45 38 35 40 43 46 41 37 40 41 38 37 34 31 29 32 31 30 27 25 24 20 17 16 15 16 15 16 16 16 17 17 17 16 15 15 16 16 16
46 40 42 56 49 42 33 30 38 46 43 40 37 43 43 42 39 35 32 32 31 31 28 26 25 23 21 20 18 17 17 17 18 18 18 18 19 19 18 18 21 17 16
44 43 41 51 51 45 35 30 32 40 47 41 38 40 46 45 43 38 33 32 31 31 30 28 27 26 25 23 18 17 14 17 18 20 23 23 22 22 19 18 20 18 17
40 42 45 52 53 43 32 33 33 33 39 42 41 41 45 48 45 40 36 36 35 35 34 31 29 27 26 22 18 17 21 23 22 23 24 27 26 24 23 22 20 17 18
41 47 49 54 47 44 40 35 34 37 44 43 40 42 44 49 48 44 41 38 37 37 33 29 27 24 23 23 21 22 20 22 22 27 28 31 30 31 29 22 18 18 18
38 44 50 47 47 44 42 37 33 38 50 43 43 47 43 47 50 47 44 43 40 39 33 33 31 24 21 27 23 21 18 24 26 26 26 28 29 22 20 17 15 19 20
40 43 47 49 45 46 44 34 30 29 38 41 49 46 45 43 44 45 46 47 44 42 41 38 34 24 26 29 30 23 24 30 27 29 26 27 26 23 21 17 17 22 21
35 45 47 45 48 42 37 32 31 32 35 46 52 45 45 54 45 59 54 51 49 48 43 43 35 30 30 32 29 25 19 26 28 24 25 20 17 20 14 18 17 19 21
20 31 39 47 46 43 41 37 35 34 36 28 35 33 31 43 29 63 36 27 59 56 52 35 33 31 26 19 12 18 24 22 16 16 13 10 16 15 17 20 21 22 20
14 18 25 27 33 34 32 32 29 30 23 29 26 27 39 38 28 34 17 9 4 16 32 24 19 7 25 23 26 26 23 18 16 13 9 9 16 24 28 27 28 23 20
11 15 22 28 29 29 29 28 28 24 28 30 29 28 28 24 29 18 22 20 29 22 23 27 19 26 29 25 27 25 23 17 14 15 10 9 13 17 20 22 22 21 19
11 14 15 21 29 27 30 35 34 33 29 30 36 32 29 27 30 29 28 29 27 30 30 30 35 38 32 31 27 25 23 19 16 13 12 13 16 18 19 19 19 18 19
7 12 17 19 17 19 23 28 32 34 31 31 31 30 31 31 33 33 34 33 33 29 31 34 32 32 31 31 28 24 25 20 19 18 15 15 19 20 19 17 17 17 19
11 15 16 19 17 18 16 16 21 18 15 19 23 23 23 25 26 27 28 28 28 29 30 30 29 31 29 25 24 22 23 19 16 20 19 18 19 19 18 17 17 18 21
15 13 14 13 15 14 14 12 13 13 15 15 15 17 19 19 18 18 19 20 22 24 24 26 27 31 30 30 27 25 23 22 18 17 17 19 21 20 20 19 20 20 22
17 12 8 9 9 12 14 13 12 10 11 14 14 14 14 16 17 17 17 16 16 16 18 22 25 27 27 31 25 27 24 26 26 18 24 20 23 27 22 24 22 21 23
11 7 8 4 2 6 9 10 12 13 13 13 14 15 14 14 15 15 15 15 16 15 16 16 22 25 28 28 27 31 32 30 28 24 27 24 25 27 27 28 25 22 22
6 4 9 11 11 8 8 8 11 14 15 15 15 15 15 15 15 15 16 16 16 16 15 15 17 18 22 25 27 32 35 30 28 27 36 28 30 29 31 29 22 23 21
8 6 3 8 15 16 13 12 15 16 15 17 18 17 16 17 17 17 18 19 20 19 19 20 19 19 18 23 25 29 30 28 33 37 34 35 32 33 33 30 27 27 28
16 17 16 15 14 18 20 19 18 19 20 20 20 21 22 23 23 24 23 23 24 26 27 27 27 27 25 25 25 26 30 32 37 38 36 35 34 35 34 35 32 33 30

GFSMW_700_spd_315.txt.gz
Wind_Speed
34 24 19 20 24 25 29 31 30 29 32 36 38 39 39 40 38 36 32 30 28 27 24 23 20 19 18 16 17 15 12 10 11 11 10 11 10 9 9 9 9 9 9
40 35 28 25 24 26 28 32 32 32 31 33 34 36 37 38 36 34 33 31 29 27 25 25 25 25 21 20 16 13 11 11 12 11 13 10 9 9 9 10 10 11 11
44 41 35 29 22 26 30 30 33 33 33 32 35 35 37 36 36 37 36 35 31 28 26 24 23 24 23 18 15 14 12 11 12 13 12 11 10 9 10 11 9 11 12
47 44 38 32 28 24 26 31 31 34 35 34 35 34 33 37 38 36 35 32 31 28 27 23 20 19 17 17 15 15 14 13 11 13 12 11 12 11 11 11 12 13 14
43 47 43 37 28 29 25 29 32 33 35 37 36 36 36 36 36 35 35 32 31 30 27 24 22 22 20 19 19 17 13 13 12 11 13 12 13 13 13 11 13 14 15
46 43 37 35 35 35 31 31 36 35 34 36 37 38 39 39 37 36 33 33 32 29 27 26 25 23 21 20 18 16 15 14 14 14 14 13 14 14 15 15 15 17 16
46 44 43 37 40 45 40 34 37 39 41 37 36 37 37 37 37 36 33 31 33 31 30 29 28 26 23 23 21 19 17 16 14 13 14 15 14 14 15 16 16 16 16
47 47 43 43 39 40 43 40 37 41 41 40 35 36 37 37 37 37 35 33 30 31 31 30 30 28 27 27 25 23 21 17 15 15 16 16 17 17 17 18 19 18 16
48 49 45 43 40 40 40 42 39 36 38 41 40 36 33 37 40 38 39 36 31 31 33 33 32 31 30 30 29 27 23 20 18 16 17 19 22 23 18 19 22 21 18
43 46 42 45 43 38 37 42 43 31 26 35 38 37 38 36 37 39 40 38 34 33 36 37 34 35 35 34 32 30 27 25 23 19 20 21 23 25 19 22 23 23 20
36 39 38 42 43 41 39 37 45 31 31 37 39 38 37 38 35 36 40 39 37 36 36 38 37 39 39 36 36 33 32 29 26 22 23 25 24 24 23 26 25 22 19
22 33 35 38 48 46 43 40 43 36 33 34 38 39 41 38 37 35 37 41 41 41 40 38 40 40 40 39 38 34 34 33 23 25 25 25 24 24 26 25 24 21 21
25 25 28 38 46 49 47 45 46 41 37 35 36 42 45 38 38 38 38 43 46 45 43 43 39 40 41 42 38 37 39 34 27 22 25 24 25 26 23 20 21 15 18
26 27 33 37 40 40 41 45 46 42 39 37 39 40 41 38 39 42 46 43 46 47 46 43 43 44 43 47 42 45 33 30 25 26 24 25 26 21 12 13 17 17 19
16 22 32 33 35 39 41 44 43 41 41 41 38 33 33 36 40 37 38 49 48 47 51 51 48 49 50 52 42 42 30 34 27 24 26 21 19 15 14 13 12 13 17
13 16 19 28 38 40 46 42 40 44 41 40 35 32 33 37 39 43 28 23 47 46 56 33 57 50 52 29 28 18 13 21 23 23 21 20 17 15 17 17 18 22 23
6 12 16 9 21 36 44 47 44 50 45 40 39 32 30 29 30 27 28 21 27 33 16 29 42 33 41 17 29 16 28 31 26 20 19 16 16 17 18 18 18 19 19
4 8 12 13 14 15 24 27 48 49 47 46 34 33 31 28 26 26 28 23 12 16 18 16 28 13 9 23 22 27 29 29 21 17 17 18 14 13 15 17 17 16 15
11 7 7 8 13 21 18 21 26 29 28 22 24 25 28 22 23 25 25 29 25 29 26 22 28 26 30 29 28 31 25 27 22 19 19 21 16 15 16 17 17 15 15
11 15 17 16 17 17 15 20 26 25 23 29 23 22 31 30 26 27 25 29 29 25 31 24 27 34 33 38 31 27 31 24 22 18 21 22 19 17 16 17 16 15 15
6 8 14 12 15 17 17 12 13 17 23 26 30 33 29 33 32 30 31 29 29 29 31 30 30 34 35 34 31 30 23 21 18 15 16 22 22 19 17 16 14 16 20
15 10 7 7 5 5 6 11 11 15 17 17 18 20 24 28 30 27 28 28 28 28 27 28 29 30 29 32 31 29 25 23 20 18 23 22 23 21 20 23 23 21 23
16 21 14 7 7 6 3 3 6 13 15 15 16 16 18 19 20 21 23 24 24 23 22 23 23 24 28 31 33 27 23 22 25 23 26 24 25 26 24 21 26 26 26
7 7 2 9 8 6 3 3 3 2 6 8 10 12 14 16 18 18 19 19 20 21 21 22 24 27 28 26 29 27 30 31 29 28 27 31 27 29 29 30 29 26 28
2 10 11 12 11 9 9 8 7 7 9 6 6 9 13 13 14 15 15 17 18 19 19 19 18 20 24 28 31 33 34 36 35 36 36 31 28 31 29 31 30 31 33
12 10 14 13 11 13 14 14 16 14 13 13 12 10 10 11 14 15 16 17 18 18 19 20 21 20 20 22 23 24 27 28 29 31 29 30 30 32 33 32 33 33 31